When you browse on this site, cookies collect data to enhance your experience and personalize the content and advertising you see.
Visit our Privacy Policy to learn more. By continuing to use the site, you agree to this use of cookies and data.
  • In Österreich
  • Länderverzeichnis
  • Für 7 Tage
  • Wassertemperatur
  • Wetterkarte
  • News
  • Widgets
  • user-avatar
    Anmelden

    Stündliche Wetter Hobart

    Heute, 11 Dezember, Mittwoch

    Zeit Temperatur Niederschläge Wind Luftdruck Luftfeuchtigkeit
    00:00 +8°C° 0 mm 2 m/S 751 mmHg 90%
    01:00 +8°C° 0 mm 2 m/S 751 mmHg 91%
    02:00 +7°C° 0 mm 2 m/S 750 mmHg 90%
    03:00 +7°C° 0 mm 2 m/S 750 mmHg 89%
    04:00 +8°C° 0 mm 2 m/S 749 mmHg 89%
    05:00 +9°C° 0 mm 2 m/S 749 mmHg 81%
    06:00 +12°C° 0 mm 2 m/S 749 mmHg 73%
    07:00 +14°C° 0 mm 2 m/S 749 mmHg 64%
    08:00 +16°C° 0 mm 2 m/S 749 mmHg 58%
    09:00 +19°C° 0 mm 1 m/S 749 mmHg 52%
    10:00 +21°C° 0 mm 1 m/S 749 mmHg 47%
    11:00 +21°C° 0 mm 1 m/S 748 mmHg 46%
    12:00 +21°C° 0 mm 2 m/S 748 mmHg 46%
    13:00 +21°C° 0 mm 2 m/S 747 mmHg 46%
    14:00 +20°C° 0 mm 2 m/S 747 mmHg 51%
    15:00 +19°C° 0 mm 2 m/S 747 mmHg 56%
    16:00 +18°C° 0 mm 1 m/S 747 mmHg 61%
    17:00 +18°C° 0 mm 1 m/S 747 mmHg 65%
    18:00 +16°C° 0 mm 1 m/S 747 mmHg 70%
    19:00 +15°C° 0 mm 1 m/S 747 mmHg 74%
    20:00 +14°C° 0 mm 1 m/S 746 mmHg 78%
    21:00 +13°C° 0 mm 2 m/S 746 mmHg 82%
    22:00 +12°C° 0 mm 2 m/S 746 mmHg 87%
    23:00 +10°C° 0 mm 2 m/S 745 mmHg 87%

    Morgen, 12 Dezember, Donnerstag

    Zeit Temperatur Niederschläge Wind Luftdruck Luftfeuchtigkeit
    00:00 +10°C° 0 mm 2 m/S 745 mmHg 87%
    01:00 +10°C° 0 mm 2 m/S 744 mmHg 87%
    02:00 +10°C° 0 mm 2 m/S 744 mmHg 86%
    03:00 +10°C° 0 mm 2 m/S 743 mmHg 86%
    04:00 +10°C° 0 mm 2 m/S 743 mmHg 85%
    05:00 +10°C° 0.1 mm 3 m/S 743 mmHg 84%
    06:00 +10°C° 0.1 mm 3 m/S 743 mmHg 82%
    07:00 +11°C° 0.1 mm 3 m/S 744 mmHg 80%
    08:00 +11°C° 0.4 mm 4 m/S 744 mmHg 75%
    09:00 +12°C° 0.4 mm 4 m/S 744 mmHg 71%
    10:00 +12°C° 0.4 mm 5 m/S 744 mmHg 66%
    11:00 +13°C° 0.1 mm 5 m/S 745 mmHg 60%
    12:00 +13°C° 0.1 mm 5 m/S 745 mmHg 55%
    13:00 +14°C° 0.1 mm 5 m/S 745 mmHg 49%
    14:00 +14°C° 0 mm 5 m/S 745 mmHg 47%
    15:00 +14°C° 0 mm 5 m/S 745 mmHg 45%
    16:00 +15°C° 0 mm 4 m/S 745 mmHg 43%
    17:00 +14°C° 0 mm 4 m/S 745 mmHg 47%
    18:00 +12°C° 0 mm 4 m/S 746 mmHg 51%
    19:00 +11°C° 0 mm 3 m/S 746 mmHg 55%
    20:00 +10°C° 0 mm 3 m/S 746 mmHg 62%
    21:00 +8°C° 0 mm 3 m/S 746 mmHg 68%
    22:00 +7°C° 0 mm 2 m/S 747 mmHg 74%
    23:00 +7°C° 0 mm 2 m/S 746 mmHg 73%

    übermorgen, 13 Dezember, Freitag

    Zeit Temperatur Niederschläge Wind Luftdruck Luftfeuchtigkeit
    00:00 +7°C° 0 mm 2 m/S 746 mmHg 72%
    01:00 +8°C° 0 mm 2 m/S 745 mmHg 71%
    02:00 +7°C° 0 mm 2 m/S 745 mmHg 73%
    03:00 +7°C° 0 mm 2 m/S 745 mmHg 74%
    04:00 +7°C° 0 mm 2 m/S 744 mmHg 76%
    05:00 +8°C° 0 mm 2 m/S 744 mmHg 73%
    06:00 +9°C° 0 mm 3 m/S 744 mmHg 70%
    07:00 +10°C° 0 mm 3 m/S 743 mmHg 68%
    08:00 +11°C° 0 mm 3 m/S 743 mmHg 69%
    09:00 +12°C° 0 mm 3 m/S 743 mmHg 69%
    10:00 +13°C° 0 mm 3 m/S 742 mmHg 70%
    11:00 +14°C° 0 mm 3 m/S 742 mmHg 68%
    12:00 +14°C° 0 mm 4 m/S 742 mmHg 67%
    13:00 +15°C° 0 mm 4 m/S 741 mmHg 65%
    14:00 +15°C° 0.1 mm 4 m/S 741 mmHg 64%
    15:00 +14°C° 0.1 mm 5 m/S 741 mmHg 63%
    16:00 +14°C° 0.1 mm 5 m/S 741 mmHg 61%
    17:00 +13°C° 0 mm 4 m/S 741 mmHg 62%
    18:00 +13°C° 0 mm 4 m/S 742 mmHg 63%
    19:00 +12°C° 0 mm 3 m/S 742 mmHg 63%
    20:00 +11°C° 0 mm 3 m/S 742 mmHg 67%
    21:00 +11°C° 0 mm 3 m/S 742 mmHg 70%
    22:00 +10°C° 0 mm 2 m/S 742 mmHg 73%
    23:00 +10°C° 0 mm 2 m/S 741 mmHg 76%

    14 Dezember, Samstag

    Zeit Temperatur Niederschläge Wind Luftdruck Luftfeuchtigkeit
    00:00 +10°C° 0 mm 3 m/S 741 mmHg 79%
    01:00 +10°C° 0 mm 3 m/S 740 mmHg 82%
    02:00 +10°C° 0.1 mm 3 m/S 740 mmHg 85%
    03:00 +10°C° 0.1 mm 3 m/S 740 mmHg 88%
    04:00 +10°C° 0.1 mm 3 m/S 740 mmHg 91%
    05:00 +12°C° 0.1 mm 2 m/S 740 mmHg 89%
    06:00 +13°C° 0.1 mm 2 m/S 740 mmHg 88%
    07:00 +13°C° 0.1 mm 2 m/S 740 mmHg 86%
    08:00 +14°C° 0.2 mm 2 m/S 741 mmHg 83%
    09:00 +14°C° 0.2 mm 3 m/S 741 mmHg 79%
    10:00 +14°C° 0.2 mm 3 m/S 742 mmHg 75%
    11:00 +14°C° 0.2 mm 3 m/S 742 mmHg 73%
    12:00 +14°C° 0.2 mm 4 m/S 742 mmHg 71%
    13:00 +14°C° 0.2 mm 4 m/S 742 mmHg 69%
    14:00 +13°C° 0.1 mm 4 m/S 742 mmHg 71%
    15:00 +12°C° 0.1 mm 3 m/S 742 mmHg 73%
    16:00 +12°C° 0.1 mm 3 m/S 742 mmHg 75%
    17:00 +11°C° 0 mm 3 m/S 742 mmHg 76%
    18:00 +12°C° 0 mm 2 m/S 743 mmHg 77%
    19:00 +10°C° 0 mm 2 m/S 743 mmHg 78%
    20:00 +11°C° 0 mm 1 m/S 743 mmHg 82%
    21:00 +10°C° 0 mm 1 m/S 744 mmHg 85%
    22:00 +9°C° 0 mm 1 m/S 744 mmHg 89%
    23:00 +9°C° 0 mm 1 m/S 744 mmHg 90%

    15 Dezember, Sonntag

    Zeit Temperatur Niederschläge Wind Luftdruck Luftfeuchtigkeit
    00:00 +8°C° 0 mm 1 m/S 743 mmHg 91%
    01:00 +8°C° 0 mm 1 m/S 743 mmHg 92%
    02:00 +8°C° 0 mm 1 m/S 743 mmHg 93%
    03:00 +7°C° 0 mm 1 m/S 742 mmHg 94%
    04:00 +7°C° 0 mm 1 m/S 742 mmHg 94%
    05:00 +8°C° 0 mm 1 m/S 742 mmHg 89%
    06:00 +9°C° 0 mm 1 m/S 742 mmHg 83%
    07:00 +11°C° 0 mm 1 m/S 742 mmHg 77%
    08:00 +11°C° 0.3 mm 1 m/S 742 mmHg 81%
    09:00 +10°C° 0.3 mm 1 m/S 742 mmHg 86%
    10:00 +9°C° 0.3 mm 2 m/S 741 mmHg 90%
    11:00 +10°C° 0.8 mm 1 m/S 741 mmHg 91%
    12:00 +10°C° 0.8 mm 1 m/S 740 mmHg 93%
    13:00 +10°C° 0.8 mm 1 m/S 740 mmHg 94%
    14:00 +11°C° 0.1 mm 1 m/S 740 mmHg 93%
    15:00 +11°C° 0.1 mm 1 m/S 739 mmHg 93%
    16:00 +12°C° 0.1 mm 1 m/S 739 mmHg 92%
    17:00 +11°C° 0.3 mm 1 m/S 740 mmHg 93%
    18:00 +10°C° 0.3 mm 2 m/S 740 mmHg 95%
    19:00 +10°C° 0.3 mm 2 m/S 740 mmHg 97%
    20:00 +9°C° 0.9 mm 2 m/S 741 mmHg 97%
    21:00 +9°C° 0.9 mm 2 m/S 742 mmHg 97%
    22:00 +9°C° 0.9 mm 2 m/S 742 mmHg 97%
    23:00 +9°C° 0.2 mm 2 m/S 742 mmHg 97%

    16 Dezember, Montag

    Zeit Temperatur Niederschläge Wind Luftdruck Luftfeuchtigkeit
    00:00 +9°C° 0.2 mm 2 m/S 743 mmHg 97%
    01:00 +9°C° 0.2 mm 2 m/S 743 mmHg 97%
    02:00 +9°C° 0 mm 1 m/S 744 mmHg 97%
    03:00 +9°C° 0 mm 1 m/S 744 mmHg 96%
    04:00 +9°C° 0 mm 1 m/S 744 mmHg 96%
    05:00 +10°C° 0 mm 1 m/S 745 mmHg 93%
    06:00 +10°C° 0 mm 0 m/S 745 mmHg 91%
    07:00 +11°C° 0 mm 0 m/S 746 mmHg 88%
    08:00 +13°C° 0 mm 1 m/S 746 mmHg 81%
    09:00 +14°C° 0 mm 2 m/S 747 mmHg 74%
    10:00 +15°C° 0 mm 2 m/S 747 mmHg 66%
    11:00 +17°C° 0 mm 2 m/S 747 mmHg 60%
    12:00 +19°C° 0 mm 3 m/S 748 mmHg 53%
    13:00 +21°C° 0 mm 3 m/S 748 mmHg 46%
    14:00 +21°C° 0 mm 3 m/S 748 mmHg 47%
    15:00 +21°C° 0 mm 3 m/S 747 mmHg 48%
    16:00 +21°C° 0 mm 3 m/S 747 mmHg 48%
    17:00 +19°C° 0 mm 3 m/S 748 mmHg 56%
    18:00 +18°C° 0 mm 3 m/S 748 mmHg 64%
    19:00 +16°C° 0 mm 2 m/S 748 mmHg 71%
    20:00 +15°C° 0 mm 2 m/S 748 mmHg 77%
    21:00 +14°C° 0 mm 1 m/S 748 mmHg 82%
    22:00 +12°C° 0 mm 1 m/S 749 mmHg 88%
    23:00 +12°C° 0 mm 1 m/S 748 mmHg 87%
    Mehr zeigen